This is the latest recevied weather packets stored in our database for station/object VE1UHF-4. If no packets are shown the sender has not sent any weather packets the latest 10 day(s).
| Time | Temp. | Humidity | Pressure | Rain* | Wind** | Luminosity | Snow |
|---|---|---|---|---|---|---|---|
| 1777743976 | 21.67° C | 84% | 1007.2 hPa | 0 mm | - | - | - |
| 1777743075 | 21.11° C | 84% | 1007.3 hPa | 0 mm | - | - | - |
| 1777742175 | 20.56° C | 85% | 1007.3 hPa | 0 mm | - | - | - |
| 1777741274 | 20.56° C | 85% | 1007.5 hPa | 0 mm | - | - | - |
| 1777740374 | 19.44° C | 85% | 1007.3 hPa | 0 mm | - | - | - |
| 1777739473 | 19.44° C | 86% | 1007.2 hPa | 0 mm | - | - | - |
| 1777738573 | 18.33° C | 86% | 1007.3 hPa | 0 mm | - | - | - |
| 1777737672 | 17.78° C | 86% | 1007 hPa | 0 mm | - | - | - |
| 1777736772 | 17.22° C | 87% | 1007.5 hPa | 0 mm | - | - | - |
| 1777735871 | 16.67° C | 87% | 1007 hPa | 0 mm | - | - | - |
| 1777734971 | 16.11° C | 87% | 1007.1 hPa | 0 mm | - | - | - |
| 1777734070 | 15.56° C | 88% | 1006.9 hPa | 0 mm | - | - | - |
| 1777733169 | 14.44° C | 88% | 1006.8 hPa | 0 mm | - | - | - |
| 1777731368 | 13.33° C | 88% | 1006.4 hPa | 0 mm | - | - | - |
| 1777730468 | 12.78° C | 88% | 1006.5 hPa | 0 mm | - | - | - |
| 1777729567 | 11.67° C | 87% | 1006.3 hPa | 0 mm | - | - | - |
| 1777728667 | 11.67° C | 87% | 1006.1 hPa | 0 mm | - | - | - |
| 1777727767 | 11.11° C | 87% | 1006.1 hPa | 0 mm | - | - | - |
| 1777726866 | 11.11° C | 86% | 1006 hPa | 0 mm | - | - | - |
| 1777725965 | 10.56° C | 86% | 1005.7 hPa | 0 mm | - | - | - |
| 1777725064 | 10.56° C | 86% | 1005.7 hPa | 0 mm | - | - | - |
| 1777724164 | 10.56° C | 86% | 1005.6 hPa | 0 mm | - | - | - |
| 1777723263 | 10.56° C | 85% | 1005.2 hPa | 0 mm | - | - | - |
| 1777722363 | 10.56° C | 85% | 1005.1 hPa | 0 mm | - | - | - |
| 1777721462 | 10.56° C | 85% | 1004.6 hPa | 0 mm | - | - | - |
* Rain since midnight (hover to see other rain measurements)
** Current wind speed in m/s (hover to see current wind gust speed)